FENGYUN 1C DEB, 30561

Orbit data source: Space-Track

FENGYUN 1C DEB, 30561 is space debris in SSO originally from a launch on Mon, 10 May 1999 UTC launched from the Taiyaun Space Center, China (TSC). Fengyun 1C debris stems from the Chinese weather satellite Fengyun-1C, which was intentionally destroyed by a Chinese anti-satellite missile in 2007. This event dramatically increased the amount of space debris, with thousands of trackable fragments posing hazards to satellites and human spaceflight. The Fengyun 1C debris cloud has become a focal point in discussions about space sustainability and the need for international regulations to prevent the creation of new debris.

Loading next visibility...
Identifier
30561, 1999-025ALB
Orbit
SSO
Country
Flag of CNCN / PRC
Related business
Manufacturer
Unknown
Mission
Spacecraft
Bus & Motor
Unknown
Mass
Unknown
Launch date (UTC)
1999-05-10 (27 years ago)
Launch vehicle
Unknown
Launch site
Taiyaun Space Center, China (TSC)
Object type
Payload
Rocket body
Debris
Shape & HBR
Unknown shape, 0.1 m
Radar Cross Section
Medium (>0.1 m² and <1 m²)

Expand to show TLE details & history
Last TLE update: 14 hours ago

TLE from 14 hours ago
0 FENGYUN 1C DEB
1 30561U 99025ALB 26164.64990213  .00000426  00000-0  25488-3 0  9995
2 30561  98.7266 166.7407 0058681 316.1238 113.8627 14.11490571995585
Epoch: 2026-06-13T15:35Z
TLE epoch observation values (Epoch: 2026-06-13T15:35:51.544Z)
Latitude
68.87615°
Longitude
7.53453°
Altitude
883.532 km
Speed
7.408 km/s
True Right ascension
09h 33m 50s
True Declination
68° 45' 44"
Sunlit
Object was in daylight at epoch
Visualization orbit readout
Latitude
Unknown
Longitude
Unknown
Altitude
Unknown
Speed
Unknown
Apparent Right ascension
Unknown
Apparent Declination
Unknown
Sunlit
N/A
Visualization observer readout
Local Sidereal Time
15:39:29
Azimuth
Unknown
Elevation
Unknown
Doppler factor
Unknown
Orbital elements
Apogee altitude
893.87 km
Perigee altitude
809.022 km
Semi-major axis
7,229.583 km
Eccentricity
0.00587
Inclination
98.7266°
RAAN
166.7407°
Arg. of periapsis
316.1238°
True anomaly
114.47582°
Mean anomaly
113.8627°
Eccentric anomaly
114.16944°
Mean motion
3.5308 °/min
Orbital period
101.96 mins
BSTAR
0.00025488
Loading maneuver chart data...
Computing Atmospheric mass density...

Documentation

Showing up to 5 results
|